TimeAKST,TemperatureF,Dew PointF,Humidity,Sea Level PressureIn,VisibilityMPH,Wind Direction,Wind SpeedMPH,Gust SpeedMPH,PrecipitationIn,Events,Conditions,WindDirDegrees,DateUTC
12:02 AM,-40.0,-9999,N/A,30.02,2.5,Calm,Calm,-,N/A,,Overcast,0,2012-12-17 09:02:00
12:05 AM,-40.0,-9999,N/A,30.02,2.0,Calm,Calm,-,N/A,,Overcast,0,2012-12-17 09:05:00
12:11 AM,-40.0,-9999,N/A,30.02,1.8,Calm,Calm,-,N/A,,Overcast,0,2012-12-17 09:11:00
12:19 AM,-40.0,-9999,N/A,30.02,2.0,Calm,Calm,-,N/A,,Mostly Cloudy,0,2012-12-17 09:19:00
12:27 AM,-40.0,-9999,N/A,30.03,1.8,Calm,Calm,-,N/A,,Mostly Cloudy,0,2012-12-17 09:27:00
12:36 AM,-40.0,-9999,N/A,30.03,2.0,Calm,Calm,-,N/A,,Mostly Cloudy,0,2012-12-17 09:36:00
12:40 AM,-41.8,-9999,N/A,30.03,2.5,Calm,Calm,-,N/A,,Mostly Cloudy,0,2012-12-17 09:40:00
12:44 AM,-41.8,-9999,N/A,30.03,2.0,Calm,Calm,-,N/A,,Overcast,0,2012-12-17 09:44:00
12:45 AM,-41.8,-9999,N/A,30.03,2.0,Calm,Calm,-,N/A,,Overcast,0,2012-12-17 09:45:00
12:49 AM,-41.8,-9999,N/A,30.03,1.8,Calm,Calm,-,N/A,,Overcast,0,2012-12-17 09:49:00
12:55 AM,-41.3,-9999,N/A,30.03,1.5,Calm,Calm,-,N/A,,Overcast,0,2012-12-17 09:55:00
12:56 AM,-41.8,-9999,N/A,30.03,1.5,Calm,Calm,-,N/A,,Overcast,0,2012-12-17 09:56:00
1:04 AM,-41.8,-9999,N/A,30.03,1.2,Calm,Calm,-,N/A,,Overcast,0,2012-12-17 10:04:00
1:19 AM,-41.8,-9999,N/A,30.03,1.2,Calm,Calm,-,N/A,,Overcast,0,2012-12-17 10:19:00
1:48 AM,-43.6,-9999,N/A,30.04,1.0,South,3.5,-,N/A,Snow,Light Snow,170,2012-12-17 10:48:00
1:55 AM,-43.6,-9999,N/A,30.04,1.0,South,3.5,-,0.00,Snow,Light Snow,170,2012-12-17 10:55:00
1:57 AM,-43.6,-9999,N/A,30.04,1.2,Calm,Calm,-,N/A,Snow,Light Snow,0,2012-12-17 10:57:00
2:04 AM,-43.6,-9999,N/A,30.04,1.2,Calm,Calm,-,N/A,,Overcast,0,2012-12-17 11:04:00
2:10 AM,-43.6,-9999,N/A,30.04,1.5,Calm,Calm,-,N/A,,Overcast,0,2012-12-17 11:10:00
2:28 AM,-43.6,-9999,N/A,30.04,2.0,Calm,Calm,-,N/A,,Mostly Cloudy,0,2012-12-17 11:28:00
2:29 AM,-43.6,-9999,N/A,30.04,2.0,Calm,Calm,-,N/A,,Scattered Clouds,0,2012-12-17 11:29:00
2:49 AM,-43.6,-9999,N/A,30.04,1.8,Calm,Calm,-,N/A,,Scattered Clouds,0,2012-12-17 11:49:00
2:51 AM,-43.6,-9999,N/A,30.04,2.0,Calm,Calm,-,N/A,,Scattered Clouds,0,2012-12-17 11:51:00
2:54 AM,-43.6,-9999,N/A,30.04,1.8,Calm,Calm,-,N/A,,Scattered Clouds,0,2012-12-17 11:54:00
3:05 AM,-43.6,-9999,N/A,30.03,2.0,SE,3.5,-,N/A,,Partly Cloudy,130,2012-12-17 12:05:00
3:07 AM,-43.6,-9999,N/A,30.03,2.5,Calm,Calm,-,N/A,,Scattered Clouds,0,2012-12-17 12:07:00
3:11 AM,-43.6,-9999,N/A,30.03,3.0,Calm,Calm,-,N/A,,Freezing Rain,0,2012-12-17 12:11:00
3:14 AM,-43.6,-9999,N/A,30.03,3.0,SSE,4.6,-,N/A,,Freezing Rain,150,2012-12-17 12:14:00
3:35 AM,-43.6,-9999,N/A,30.04,3.0,Calm,Calm,-,N/A,,Partly Cloudy,0,2012-12-17 12:35:00
3:41 AM,-43.6,-9999,N/A,30.04,3.0,NW,3.5,-,N/A,Snow,Light Snow,310,2012-12-17 12:41:00
3:47 AM,-43.6,-9999,N/A,30.04,4.0,Calm,Calm,-,N/A,Snow,Light Snow,0,2012-12-17 12:47:00
3:50 AM,-43.6,-9999,N/A,30.04,4.0,Calm,Calm,-,N/A,Snow,Light Snow,0,2012-12-17 12:50:00
3:54 AM,-41.8,-9999,N/A,30.03,2.5,Calm,Calm,-,N/A,,Mostly Cloudy,0,2012-12-17 12:54:00
3:57 AM,-41.8,-9999,N/A,30.04,2.0,Calm,Calm,-,N/A,,Mostly Cloudy,0,2012-12-17 12:57:00
3:58 AM,-41.8,-9999,N/A,30.04,2.0,Calm,Calm,-,N/A,,Mostly Cloudy,0,2012-12-17 12:58:00
4:20 AM,-41.8,-9999,N/A,30.03,2.5,Calm,Calm,-,N/A,Snow,Light Snow,0,2012-12-17 13:20:00
4:31 AM,-43.6,-9999,N/A,30.02,2.0,Calm,Calm,-,N/A,,Overcast,0,2012-12-17 13:31:00
4:37 AM,-43.6,-9999,N/A,30.02,1.8,Calm,Calm,-,N/A,,Overcast,0,2012-12-17 13:37:00
4:45 AM,-43.6,-9999,N/A,30.02,1.8,Calm,Calm,-,N/A,,Overcast,0,2012-12-17 13:45:00
4:50 AM,-41.8,-9999,N/A,30.02,2.0,SE,3.5,-,N/A,,Overcast,140,2012-12-17 13:50:00
4:55 AM,-42.2,-9999,N/A,30.02,2.0,SE,3.5,-,0.00,,Overcast,140,2012-12-17 13:55:00
4:56 AM,-41.8,-9999,N/A,30.02,2.5,SE,3.5,-,N/A,,Overcast,140,2012-12-17 13:56:00
4:59 AM,-41.8,-9999,N/A,30.02,3.0,Calm,Calm,-,N/A,,Overcast,0,2012-12-17 13:59:00
5:09 AM,-41.8,-9999,N/A,30.03,2.5,Calm,Calm,-,N/A,,Overcast,0,2012-12-17 14:09:00
5:12 AM,-41.8,-9999,N/A,30.03,2.5,Calm,Calm,-,N/A,,Overcast,0,2012-12-17 14:12:00
5:15 AM,-41.8,-9999,N/A,30.03,2.0,Calm,Calm,-,N/A,,Overcast,0,2012-12-17 14:15:00
5:26 AM,-41.8,-9999,N/A,30.03,2.5,Calm,Calm,-,N/A,,Overcast,0,2012-12-17 14:26:00
5:28 AM,-41.8,-9999,N/A,30.03,2.0,Calm,Calm,-,N/A,,Overcast,0,2012-12-17 14:28:00
5:32 AM,-41.8,-9999,N/A,30.03,2.0,Calm,Calm,-,N/A,,Overcast,0,2012-12-17 14:32:00
5:45 AM,-41.8,-9999,N/A,30.03,1.8,Calm,Calm,-,N/A,,Mostly Cloudy,0,2012-12-17 14:45:00
5:50 AM,-41.8,-9999,N/A,30.02,1.8,Calm,Calm,-,N/A,,Scattered Clouds,0,2012-12-17 14:50:00
5:55 AM,-42.7,-9999,N/A,30.03,1.2,Calm,Calm,-,N/A,,Scattered Clouds,0,2012-12-17 14:55:00
5:58 AM,-41.8,-9999,N/A,30.03,1.2,Calm,Calm,-,N/A,,Mostly Cloudy,0,2012-12-17 14:58:00
6:00 AM,-41.8,-9999,N/A,30.03,1.0,Calm,Calm,-,N/A,,Mist,0,2012-12-17 15:00:00
6:05 AM,-41.8,-9999,N/A,30.03,1.0,Calm,Calm,-,N/A,,Mist,0,2012-12-17 15:05:00
6:11 AM,-41.8,-9999,N/A,30.03,1.0,Calm,Calm,-,N/A,,Mist,0,2012-12-17 15:11:00
6:14 AM,-41.8,-9999,N/A,30.03,1.0,Calm,Calm,-,N/A,,Mist,0,2012-12-17 15:14:00
6:15 AM,-41.8,-9999,N/A,30.03,1.0,Calm,Calm,-,N/A,,Mist,0,2012-12-17 15:15:00
6:25 AM,-41.8,-9999,N/A,30.03,1.2,Calm,Calm,-,N/A,Snow,Light Snow,0,2012-12-17 15:25:00
6:29 AM,-43.6,-9999,N/A,30.03,1.5,SE,4.6,-,N/A,Snow,Light Snow,140,2012-12-17 15:29:00
6:33 AM,-43.6,-9999,N/A,30.03,2.0,SE,3.5,-,N/A,Snow,Light Snow,140,2012-12-17 15:33:00
6:36 AM,-43.6,-9999,N/A,30.03,2.5,SE,3.5,-,N/A,,Mostly Cloudy,140,2012-12-17 15:36:00
6:38 AM,-43.6,-9999,N/A,30.03,2.5,SE,3.5,-,N/A,,Scattered Clouds,140,2012-12-17 15:38:00
6:47 AM,-43.6,-9999,N/A,30.02,2.0,SE,4.6,-,N/A,,Scattered Clouds,140,2012-12-17 15:47:00
6:51 AM,-43.6,-9999,N/A,30.02,2.0,SE,3.5,-,N/A,,Mostly Cloudy,140,2012-12-17 15:51:00
6:53 AM,-43.6,-9999,N/A,30.02,2.0,Calm,Calm,-,N/A,,Mostly Cloudy,0,2012-12-17 15:53:00
6:55 AM,-43.2,-9999,N/A,30.02,1.8,Calm,Calm,-,0.00,,Clear,0,2012-12-17 15:55:00
7:06 AM,-43.6,-9999,N/A,30.02,0.5,Calm,Calm,-,N/A,Fog,Light Freezing Fog,0,2012-12-17 16:06:00
7:55 AM,-41.4,-9999,N/A,30.01,0.4,Calm,Calm,-,N/A,Snow,Light Snow,0,2012-12-17 16:55:00
8:19 AM,-43.6,-9999,N/A,30.00,1.0,Calm,Calm,-,N/A,,Mist,0,2012-12-17 17:19:00
8:55 AM,-41.8,-9999,N/A,30.01,0.8,Calm,Calm,-,N/A,,Mist,0,2012-12-17 17:55:00
9:20 AM,-41.8,-9999,N/A,29.99,0.4,Calm,Calm,-,N/A,Fog,Light Freezing Fog,0,2012-12-17 18:20:00
9:55 AM,-40.2,-9999,N/A,29.98,0.4,Calm,Calm,-,N/A,Fog,Light Freezing Fog,0,2012-12-17 18:55:00
10:55 AM,-42.9,-9999,N/A,29.97,0.4,Calm,Calm,-,N/A,Fog,Light Freezing Fog,0,2012-12-17 19:55:00
11:14 AM,-43.6,-9999,N/A,29.97,0.5,Calm,Calm,-,N/A,Fog,Light Freezing Fog,0,2012-12-17 20:14:00
11:55 AM,-42.5,-9999,N/A,29.95,0.5,Calm,Calm,-,N/A,Fog,Light Freezing Fog,0,2012-12-17 20:55:00
12:03 PM,-41.8,-9999,N/A,29.95,1.5,Calm,Calm,-,N/A,,Clear,0,2012-12-17 21:03:00
12:55 PM,-40.5,-9999,N/A,29.92,0.4,Calm,Calm,-,N/A,Fog,Light Freezing Fog,0,2012-12-17 21:55:00
3:49 PM,-40.0,-9999,N/A,29.86,0.8,Calm,Calm,-,N/A,,Scattered Clouds,0,2012-12-18 00:49:00
3:55 PM,-39.8,-9999,N/A,29.85,0.8,Calm,Calm,-,N/A,,Scattered Clouds,0,2012-12-18 00:55:00
4:24 PM,-40.0,-9999,N/A,29.83,1.0,Calm,Calm,-,N/A,,Partly Cloudy,0,2012-12-18 01:24:00
4:39 PM,-40.0,-9999,N/A,29.83,2.0,Calm,Calm,-,N/A,,Clear,0,2012-12-18 01:39:00
4:55 PM,-40.5,-9999,N/A,29.81,2.5,Calm,Calm,-,N/A,,Clear,0,2012-12-18 01:55:00
5:43 PM,-40.0,-9999,N/A,29.79,2.0,Calm,Calm,-,N/A,,Clear,0,2012-12-18 02:43:00
5:55 PM,-40.0,-9999,N/A,29.79,2.5,Calm,Calm,-,N/A,,Clear,0,2012-12-18 02:55:00
6:19 PM,-40.0,-9999,N/A,29.77,2.0,Calm,Calm,-,N/A,,Clear,0,2012-12-18 03:19:00
6:55 PM,-40.5,-9999,N/A,29.75,3.0,Calm,Calm,-,N/A,,Clear,0,2012-12-18 03:55:00
7:25 PM,-41.8,-9999,N/A,29.75,2.0,Calm,Calm,-,N/A,,Clear,0,2012-12-18 04:25:00
7:55 PM,-41.8,-9999,N/A,29.73,2.0,Calm,Calm,-,N/A,,Clear,0,2012-12-18 04:55:00
8:55 PM,-41.1,-9999,N/A,29.70,1.8,Calm,Calm,-,N/A,,Clear,0,2012-12-18 05:55:00
9:02 PM,-40.0,-9999,N/A,29.69,2.0,Calm,Calm,-,N/A,,Clear,0,2012-12-18 06:02:00
9:55 PM,-41.1,-9999,N/A,29.67,2.0,Calm,Calm,-,0.00,Snow,Light Snow,0,2012-12-18 06:55:00
10:16 PM,-41.8,-9999,N/A,29.67,3.0,Calm,Calm,-,N/A,,Haze,0,2012-12-18 07:16:00
10:55 PM,-42.9,-9999,N/A,29.67,3.0,Calm,Calm,-,0.00,,Clear,0,2012-12-18 07:55:00
11:08 PM,-41.8,-9999,N/A,29.66,2.5,Calm,Calm,-,N/A,,Clear,0,2012-12-18 08:08:00
11:10 PM,-41.8,-9999,N/A,29.66,3.0,Calm,Calm,-,N/A,,Clear,0,2012-12-18 08:10:00
11:26 PM,-41.8,-9999,N/A,29.65,2.5,Calm,Calm,-,N/A,,Clear,0,2012-12-18 08:26:00
11:29 PM,-41.8,-9999,N/A,29.65,2.0,Calm,Calm,-,N/A,,Clear,0,2012-12-18 08:29:00
11:32 PM,-41.8,-9999,N/A,29.65,1.8,Calm,Calm,-,N/A,,Clear,0,2012-12-18 08:32:00
11:34 PM,-43.6,-9999,N/A,29.65,1.5,Calm,Calm,-,N/A,,Clear,0,2012-12-18 08:34:00
11:41 PM,-43.6,-9999,N/A,29.65,2.0,Calm,Calm,-,N/A,,Clear,0,2012-12-18 08:41:00
11:44 PM,-43.6,-9999,N/A,29.65,2.5,Calm,Calm,-,N/A,,Clear,0,2012-12-18 08:44:00
11:48 PM,-43.6,-9999,N/A,29.64,2.5,Calm,Calm,-,N/A,,Clear,0,2012-12-18 08:48:00
11:55 PM,-42.2,-9999,N/A,29.64,2.5,Calm,Calm,-,N/A,,Clear,0,2012-12-18 08:55:00
11:59 PM,-41.8,-9999,N/A,29.64,3.0,Calm,Calm,-,N/A,,Clear,0,2012-12-18 08:59:00